COSMOS 397 DEB, 20090

Orbit data source: Space-Track

COSMOS 397 DEB, 20090 is space debris in LEO originally from a launch on Thu, 25 Feb 1971 UTC launched from the Tyuratam Missile And Space Complex (TTMTR). Debris objects in space refer to the collection of defunct objects orbiting the Earth. Examples of debris include non-operational satellites, rocket bodies, and fragments generated from explosions, collisions, or faulty payload assembly.

Loading next visibility...
Identifier
20090, 1971-015DU
Orbit
LEO
Country
Flag of CISCIS
Related business
Manufacturer
Unknown
Mission
Spacecraft
Bus & Motor
Unknown
Mass
Unknown
Launch date (UTC)
1971-02-25 (55 years ago)
Launch vehicle
Unknown
Launch site
Tyuratam Missile And Space Complex (TTMTR)
Object type
Payload
Rocket body
Debris
Shape & HBR
Unknown shape, 0.1 m
Radar Cross Section
Small (<0.1 m²)

Expand to show TLE details & history
Last TLE update: 13 hours ago

TLE from 13 hours ago
0 COSMOS 397 DEB
1 20090U 71015DU  25349.95897479  .00004940  00000-0  97116-3 0  9990
2 20090  65.6727 178.6406 0410783 100.1595  44.8049 14.21392687658339
Epoch: 2025-12-15T23:00Z
TLE epoch observation values (Epoch: 2025-12-15T23:00:55.421Z)
Latitude
28.58025°
Longitude
-85.61866°
Altitude
619.739 km
Speed
7.658 km/s
True Right ascension
22h 57m 50s
True Declination
28° 25' 59"
Sunlit
Object was in daylight at epoch
Visualization orbit readout
Latitude
Unknown
Longitude
Unknown
Altitude
Unknown
Speed
Unknown
Apparent Right ascension
Unknown
Apparent Declination
Unknown
Sunlit
N/A
Visualization observer readout
Local Sidereal Time
11:07:56
Azimuth
Unknown
Elevation
Unknown
Doppler factor
Unknown
Orbital elements
Apogee altitude
1,114.798 km
Perigee altitude
523.494 km
Semi-major axis
7,197.283 km
Eccentricity
0.04108
Inclination
65.6727°
RAAN
178.6406°
Arg. of periapsis
100.1595°
True anomaly
48.2452°
Mean anomaly
44.8049°
Eccentric anomaly
46.5125°
Mean motion
3.5546 °/min
Orbital period
101.28 mins
BSTAR
0.00097116
Loading maneuver chart data...
Computing Atmospheric mass density...
Loading historical data...
Loading historical data...
Loading historical data...
Loading historical data...
Loading historical data...
Loading historical data...
Loading historical data...

Documentation

Showing up to 5 results
|